Simultaneous Nadir Overpasses (SNOs) Predictions

Prediction of SNOs between AQUA and METOP-A Satellite Orbit:

Table of predicted SNOs for the next 14.0 days since TLE Epoch: 12/5/2014
Index Date (AQUA) Time (AQUA) Lat,Lon (AQUA) SZA (AQUA ) Date (METOP-A) Time (METOP-A) Lat,Lon (METOP-A) SZA (METOP-A ) Distance(km) Time Diff (sec)
1 12/05/2014 07:04:12 -73.75,-111.66 83.96 12/05/2014 07:03:44 -73.76,-111.74 83.94 2.76 28
2 12/05/2014 07:53:41 73.82, 55.83 96.12 12/05/2014 07:54:22 73.84, 55.78 96.14 2.76 41
3 12/08/2014 02:38:31 -73.78, -45.29 83.60 12/08/2014 02:38:05 -73.78, -45.29 83.59 0.40 26
4 12/08/2014 03:28:00 73.85, 122.18 96.49 12/08/2014 03:28:43 73.85, 122.22 96.49 1.26 43
5 12/10/2014 22:12:50 -73.79, 21.11 83.31 12/10/2014 22:12:27 -73.79, 21.14 83.31 0.84 23
6 12/10/2014 23:02:19 73.87,-171.43 96.78 12/10/2014 23:03:05 73.86,-171.36 96.77 2.19 46
7 12/13/2014 17:47:08 -73.79, 87.54 83.10 12/13/2014 17:46:49 -73.78, 87.54 83.10 0.24 19
8 12/13/2014 18:36:37 73.87,-105.00 96.99 12/13/2014 18:37:27 73.85,-104.96 96.98 1.99 50
9 12/16/2014 12:31:48 73.18, -12.39 96.43 12/16/2014 12:30:41 73.16, -14.80 96.47 77.65 67
10 12/16/2014 13:21:25 -73.77, 154.01 82.96 12/16/2014 13:21:11 -73.77, 153.92 82.95 3.08 14
11 12/16/2014 14:10:53 73.86, -38.54 97.14 12/16/2014 14:11:48 73.84, -38.59 97.12 2.45 55




NCC Satellite Simultaneous Nadir Overpasses (SNOs) Prediction Service
